Location: ??????
(38.0677°N, 22.9870°E)
Time: 10:29:35
(UTC+00:00)

UNK - Pass Details

Date: 23 May 2024
Orbit: 659 x 680 km, 98.3° (Epoch: 23 June)

Event Time Altitude Azimuth Distance (km) Brightness Sun altitude
Exits shadow 01:40:50 - 173° (S) 2,222 6.1 -15.4°
Reaches altitude 10° 01:41:07 10° 173° (S) 2,112 6.0 -15.4°
Maximum altitude 01:45:43 72° 257° (WSW) 716 3.7 -14.7°
Drops below altitude 10° 01:50:22 10° 343° (NNW) 2,126 6.6 -14.0°
Sets 01:52:37 0° 345° (NNW) 3,044 7.5 -13.7°
